User: anonymous   Login
Location: Castifao
(42.5040°N, 9.1124°E)
Time: 12:37:22
(UTC+00:00)
Language:

Cosmos-2242 - Orbit

View from above orbital plane
View from above orbital plane
View from above satellite
View from above satellite

Ground track
Ground track

The orbit data is extracted from the following two-line orbital elements,

1 22626U 93024A   20088.99460912  .00000147  00000-0  13263-4 0  9995
2 22626  82.5236 163.9132 0018543 353.3135   6.7832 14.87978180457190
Epoch (UTC): 28 March 2020 23:52:14
Eccentricity: 0.0018543
inclination: 82.5236°
perigee height: 591 km
apogee height: 617 km
right ascension of ascending node: 163.9132°
argument of perigee: 353.3135°
revolutions per day: 14.87978180
mean anomaly at epoch: 6.7832°
orbit number at epoch: 45719

The dashed part of the orbit path shows where the satellite is in the earth's shadow,  

DLR